This is the latest recevied weather packets stored in our database for station/object G0TQM-11. If no packets are shown the sender has not sent any weather packets the latest 10 day(s).
| Time | Temp. | Humidity | Pressure | Rain* | Wind** | Luminosity | Snow |
|---|---|---|---|---|---|---|---|
| 1777575893 | 27.78° C | 27% | 1015.8 hPa | - | - | - | - |
| 1777574692 | 30° C | 26% | 1015.7 hPa | - | - | - | - |
| 1777573492 | 31.11° C | 25% | 1015.6 hPa | - | - | - | - |
| 1777572292 | 34.44° C | 23% | 1015.8 hPa | - | - | - | - |
| 1777571092 | 37.22° C | 21% | 1015.8 hPa | - | - | - | - |
| 1777569892 | 37.78° C | 21% | 1015.7 hPa | - | - | - | - |
| 1777568692 | 37.78° C | 21% | 1015.7 hPa | - | - | - | - |
| 1777567491 | 37.78° C | 21% | 1015.7 hPa | - | - | - | - |
| 1777566291 | 37.78° C | 21% | 1015.6 hPa | - | - | - | - |
| 1777565091 | 36.67° C | 22% | 1015.9 hPa | - | - | - | - |
| 1777563891 | 36.11° C | 22% | 1016.1 hPa | - | - | - | - |
| 1777562691 | 35° C | 23% | 1016.1 hPa | - | - | - | - |
| 1777561491 | 35° C | 23% | 1016.3 hPa | - | - | - | - |
| 1777560291 | 34.44° C | 23% | 1016.5 hPa | - | - | - | - |
| 1777559090 | 33.89° C | 23% | 1016.6 hPa | - | - | - | - |
| 1777557890 | 33.89° C | 23% | 1016.7 hPa | - | - | - | - |
| 1777556690 | 33.89° C | 24% | 1016.7 hPa | - | - | - | - |
| 1777555490 | 32.22° C | 26% | 1017.1 hPa | - | - | - | - |
| 1777554290 | 32.22° C | 26% | 1017.5 hPa | - | - | - | - |
| 1777553090 | 31.11° C | 27% | 1017.5 hPa | - | - | - | - |
| 1777551890 | 30.56° C | 28% | 1017.9 hPa | - | - | - | - |
| 1777550689 | 28.89° C | 29% | 1017.9 hPa | - | - | - | - |
| 1777549489 | 27.22° C | 30% | 1018 hPa | - | - | - | - |
| 1777548289 | 25.56° C | 32% | 1018.4 hPa | - | - | - | - |
| 1777547089 | 23.89° C | 32% | 1018.7 hPa | - | - | - | - |
* Rain since midnight (hover to see other rain measurements)
** Current wind speed in m/s (hover to see current wind gust speed)